TimeCDT,TemperatureF,Dew PointF,Humidity,Sea Level PressureIn,VisibilityMPH,Wind Direction,Wind SpeedMPH,Gust SpeedMPH,PrecipitationIn,Events,Conditions,WindDirDegrees,DateUTC
12:56 AM,75.9,73.0,91,30.08,10.0,SSW,3.5,-,N/A,,Clear,210,2012-09-02 05:56:00
1:56 AM,75.0,72.0,90,30.06,10.0,Calm,Calm,-,N/A,,Clear,0,2012-09-02 06:56:00
2:56 AM,73.9,72.0,93,30.04,10.0,Calm,Calm,-,N/A,,Clear,0,2012-09-02 07:56:00
3:56 AM,73.9,72.0,93,30.03,9.0,Calm,Calm,-,N/A,,Clear,0,2012-09-02 08:56:00
4:56 AM,73.0,71.1,93,30.04,8.0,Calm,Calm,-,N/A,,Clear,0,2012-09-02 09:56:00
5:16 AM,73.0,71.1,93,30.06,7.0,Calm,Calm,-,N/A,,Scattered Clouds,0,2012-09-02 10:16:00
5:28 AM,73.0,71.1,93,30.06,6.0,Calm,Calm,-,N/A,,Mostly Cloudy,0,2012-09-02 10:28:00
5:56 AM,73.9,72.0,93,30.05,6.0,West,3.5,-,N/A,,Overcast,260,2012-09-02 10:56:00
6:56 AM,75.0,73.0,94,30.07,5.0,West,3.5,-,N/A,,Overcast,270,2012-09-02 11:56:00
7:56 AM,75.9,73.9,94,30.08,6.0,WSW,3.5,-,N/A,,Overcast,250,2012-09-02 12:56:00
8:20 AM,77.0,73.9,90,30.09,8.0,Variable,3.5,-,N/A,,Overcast,0,2012-09-02 13:20:00
8:56 AM,78.1,73.9,87,30.08,10.0,WSW,4.6,-,N/A,,Overcast,240,2012-09-02 13:56:00
9:56 AM,82.0,75.0,79,30.08,10.0,South,4.6,-,N/A,,Mostly Cloudy,180,2012-09-02 14:56:00
10:12 AM,82.9,75.0,77,30.09,10.0,South,6.9,-,N/A,,Scattered Clouds,170,2012-09-02 15:12:00
10:56 AM,84.0,73.9,72,30.07,10.0,Variable,3.5,-,N/A,,Partly Cloudy,0,2012-09-02 15:56:00
11:56 AM,88.0,73.9,63,30.06,10.0,Variable,5.8,-,N/A,,Clear,0,2012-09-02 16:56:00
12:56 PM,89.1,73.0,59,30.04,10.0,SSW,9.2,17.3,N/A,,Partly Cloudy,200,2012-09-02 17:56:00
1:56 PM,90.0,71.1,54,30.01,10.0,SW,9.2,-,N/A,,Clear,220,2012-09-02 18:56:00
2:38 PM,80.1,73.9,81,30.02,2.0,WNW,12.7,20.7,0.06,Rain,Heavy Rain,290,2012-09-02 19:38:00
2:54 PM,84.0,75.0,74,30.01,10.0,West,3.5,-,0.08,,Scattered Clouds,260,2012-09-02 19:54:00
2:56 PM,84.0,75.0,74,29.99,10.0,Calm,Calm,-,0.08,,Scattered Clouds,0,2012-09-02 19:56:00
3:56 PM,82.0,75.9,82,29.98,2.5,South,5.8,-,0.05,Rain,Rain,180,2012-09-02 20:56:00
4:05 PM,82.0,77.0,85,29.99,10.0,South,3.5,-,0.00,Rain,Light Rain,180,2012-09-02 21:05:00
4:56 PM,86.0,75.0,70,29.96,10.0,SW,6.9,-,0.00,,Clear,220,2012-09-02 21:56:00
5:56 PM,84.0,75.0,74,29.95,10.0,South,3.5,-,N/A,,Clear,190,2012-09-02 22:56:00
6:56 PM,82.0,75.0,79,29.96,10.0,South,3.5,-,N/A,,Clear,190,2012-09-02 23:56:00
7:56 PM,80.1,75.0,85,29.97,10.0,Calm,Calm,-,N/A,,Clear,0,2012-09-03 00:56:00
8:56 PM,79.0,75.0,88,29.97,10.0,South,3.5,-,N/A,,Clear,180,2012-09-03 01:56:00
9:56 PM,79.0,73.9,84,29.98,10.0,South,5.8,-,N/A,,Clear,190,2012-09-03 02:56:00
10:56 PM,78.1,73.9,87,29.98,10.0,SSW,6.9,-,N/A,,Clear,210,2012-09-03 03:56:00
11:56 PM,77.0,73.9,90,29.98,10.0,SSW,5.8,-,N/A,,Clear,210,2012-09-03 04:56:00